Regional Weather Roundup
Issued by NWS

Home | Current Version | Previous Version | Graphics & Text | Print | Product List | Glossary Off
Versions: 1 2 3 4 5 6 7 8 9 10 11 12 13 14 15 16 17 18 19 20 21 22 23 24 25 26 27 28 29 30 31 32 33 34 35 36 37 38 39 40 41 42 43 44 45 46 47 48 49 50

000
ASUS43 KMKX 301000
RWRWI

WISCONSIN REGIONAL WEATHER ROUNDUP
NATIONAL WEATHER SERVICE MILWAUKEE/SULLIVAN WI
500 AM CDT SAT AUG 30 2014

NOTE: "FAIR" INDICATES FEW OR NO CLOUDS BELOW 12,000 FEET WITH NO
SIGNIFICANT WEATHER AND/OR OBSTRUCTIONS TO VISIBILITY.

WIZ001-002-006>008-014>016-023>028-301100-
NORTHWEST WISCONSIN

CITY           SKY/WX    TMP DP  RH WIND       PRES   REMARKS
SUPERIOR ARPT  CLOUDY    61  61  99 NE3       29.79S FOG
ASHLAND        CLOUDY    61  60  97 NE5       29.79F
HAYWARD        LGT RAIN  63  63 100 NE7       29.77F
SIREN          RAIN      63  62  98 NE6       29.78S
RICE LAKE      LGT RAIN  65  63  95 CALM      29.78S
LADYSMITH      LGT RAIN  65  64  96 CALM      29.77S VSB 1
EAU CLAIRE     CLOUDY    67  67 100 CALM      29.74S
MENOMONIE      CLOUDY    66  66  99 CALM      29.76S FOG
NEW RICHMOND   RAIN      65  65 100 CALM      29.77S
OSCEOLA        LGT RAIN  66  66 100 N6        29.79S
$$

WIZ003>005-009-010-017-018-301100-
NORTH CENTRAL WISCONSIN

CITY           SKY/WX    TMP DP  RH WIND       PRES   REMARKS
WOODRUFF       LGT RAIN  64  63  94 CALM      29.77F
RHINELANDER    LGT RAIN  63  62  97 CALM      29.78S FOG
EAGLE RIVER    LGT RAIN  63  63 100 CALM      29.77S
LAND O LAKES   CLOUDY    64  64  99 CALM      29.79S FOG
PHILLIPS       LGT RAIN  63  63 100 CALM      29.76S
TOMAHAWK       CLOUDY    63  62  97 CALM      29.77S FOG
MEDFORD        RAIN      63  63 100 CALM      29.76R
MERRILL        CLOUDY    64  64 100 CALM      29.76R FOG
$$

WIZ029-030-035-036-043>047-301100-
CENTRAL WISCONSIN

CITY           SKY/WX    TMP DP  RH WIND       PRES   REMARKS
WAUSAU         LGT RAIN  65  64  97 E3        29.74S FOG
MOSINEE        LGT RAIN  63  63 100 E6        29.76F
MARSHFIELD     LGT RAIN  67  65  93 E6        29.74F
STEVENS POINT  LGT RAIN  64  64  99 E3        29.75F
WAUPACA        CLOUDY    68  67  94 CALM      29.75S
WAUTOMA        CLOUDY    70  70 100 CALM      29.75S
WISC RAPIDS    CLOUDY    67  65  93 E6        29.74F
CAMP DOUGLAS   MOCLDY    68  68 100 SW7       29.74R
$$

WIZ011>013-019>022-031-037>040-048>050-301100-
NORTHEAST WISCONSIN

CITY           SKY/WX    TMP DP  RH WIND       PRES   REMARKS
ANTIGO         RAIN      63  63 100 CALM      29.77F
STURGEON BAY   CLOUDY    66  64  94 E3        29.77S
GREEN BAY      CLOUDY    68  67  96 CALM      29.76F
MANITOWOC      NOT AVBL
APPLETON       CLOUDY    66  64  94 NE6       29.76F
CLINTONVILLE   CLOUDY    64  64 100 SE5       29.74F
OSHKOSH        CLOUDY    71  69  93 S7        29.75F
$$

WIZ032>034-041-042-053>061-301100-
SOUTHWEST WISCONSIN

CITY           SKY/WX    TMP DP  RH WIND       PRES   REMARKS
LA CROSSE      CLOUDY    69  67  93 S3        29.74R
SPARTA         RAIN      67  66  98 CALM      29.74S
VIROQUA        CLOUDY    66  66 100 SW7       29.77S
BOSCOBEL       CLOUDY    70  67  90 CALM      29.76S
PRAIRIE DU CHI CLOUDY    69  66  91 CALM      29.75F
PLATTEVILLE    CLOUDY    70  69  95 S10       29.80R
$$

WIZ056-057-062-063-064-067-068-301100-
SOUTH CENTRAL WISCONSIN

CITY           SKY/WX    TMP DP  RH WIND       PRES   REMARKS
BARABOO/DELLS  MOCLDY    69  65  90 SW9       29.76R
LONE ROCK      NOT AVBL
WATERTOWN      CLOUDY    70  69  95 SW9       29.79S
MADISON        CLOUDY    72  68  87 SW7       29.78S
MIDDLETON      CLOUDY    72  70  94 SW7       29.79S
MONROE         CLOUDY    70  68  94 S12       29.80S
JANESVILLE     MOCLDY    72  68  88 S9        29.80S
$$

WIZ051-052-058>065-066-070>072-301100-
SOUTHEAST WISCONSIN

CITY           SKY/WX    TMP DP  RH WIND       PRES   REMARKS
MILWAUKEE      CLOUDY    74  68  81 SW14      29.80S
WAUKESHA       CLOUDY    70  64  83 SW8       29.81S
MILWAUKEE/TIMM CLOUDY    72  64  78 SW12G17   29.81R
RACINE         CLOUDY    74  68  81 SW9       29.82S
BURLINGTON     CLOUDY    69  67  93 SW9       29.81S
KENOSHA        CLOUDY    74  68  81 SW13G18   29.81F
FOND DU LAC    CLOUDY    71  67  87 S10       29.77S
SHEBOYGAN      CLOUDY    70  68  93 S6        29.77F FOG
WEST BEND      CLOUDY    70  64  83 SW8       29.79S
JUNEAU         MOCLDY    70  67  91 S12       29.79S
$$

LSZ147-162-301100-
LAKE SUPERIOR

STATION/POSITION TIME  TEMP    WIND        PRES    WAVE
                       AIR SEA DIR/SP/G            HT/PER
                 (UTC) (F)     (DEG/KT/KT) (MB)    (FT/S)
W MID LAKE BUOY  0850   58 58   40/  6/  6 1008.6F   1
DEVILS ISLAND    0900   60      80/  5/  6 1008.9S
PORT WING        0940   62      30/  3/  4 1009.1S
SAXON HARBOR     0900   63      10/  4/  5 1008.8
$$

LMZ867-665-643>646-301100-
LAKE MICHIGAN

STATION/POSITION TIME  TEMP    WIND        PRES    WAVE
                       AIR SEA DIR/SP/G            HT/PER
                 (UTC) (F)     (DEG/KT/KT) (MB)    (FT/S)
N MID LAKE BUOY  0850   68 65  230/ 16/ 17 1008.5R   4/ 7
NORTHPORT PIER   0920   68     190/  4/ 22 1009.1R
SISTER BAY       0926   67        CALM       N/A
KEWAUNEE LAKESHO 0900   71     190/  2/  6 1007.5R
SHEBOYGAN LAKESH 0900   69 62  180/ 19/ 21 1008.4F
ATWATER BUOY     0900   68     170/  8/ 10 1010.0S
MILWAUKEE LAKESH 0900   74     200/ 10/ 11   N/A
S MID LAKE BUOY  0850   72 69  170/ 17/ 19 1009.5F
KENOSHA   LAKESH 0800   71     180/ 12/ 13 1009.5F
$$

TC  - TEMPERATURE IN CELSIUS
VSB - VISIBILITY IN STATUTE MILES
WCI - WIND CHILL INDEX
HX  - HEAT INDEX



USA.gov is the U.S. government's official web portal to all federal, state and local government web resources and services.